When you browse on this site, cookies collect data to enhance your experience and personalize the content and advertising you see.
Visit our Privacy Policy to learn more. By continuing to use the site, you agree to this use of cookies and data.
  • In Deutschland
  • Länderverzeichnis
  • Für 7 Tage
  • Wassertemperatur
  • Satellitenkarten
  • Wetterkarte
  • Widgets
  • user-avatar
    Anmelden

    Stündliche Wetter Korçe

    Heute, 25 April, Donnerstag

    Zeit Temperatur Niederschläge Wind Luftdruck Luftfeuchtigkeit
    00:00 +10°C° 0 mm 2 m/S 670 mmHg 80%
    01:00 +10°C° 0 mm 1 m/S 670 mmHg 80%
    02:00 +9°C° 0 mm 2 m/S 670 mmHg 78%
    03:00 +9°C° 0 mm 2 m/S 670 mmHg 76%
    04:00 +9°C° 0 mm 2 m/S 670 mmHg 74%
    05:00 +12°C° 0 mm 2 m/S 670 mmHg 69%
    06:00 +13°C° 0 mm 2 m/S 671 mmHg 64%
    07:00 +15°C° 0 mm 2 m/S 671 mmHg 59%
    08:00 +17°C° 0 mm 2 m/S 672 mmHg 52%
    09:00 +18°C° 0 mm 2 m/S 672 mmHg 45%
    10:00 +20°C° 0 mm 2 m/S 673 mmHg 38%
    11:00 +21°C° 0 mm 2 m/S 673 mmHg 39%
    12:00 +21°C° 0 mm 2 m/S 673 mmHg 40%
    13:00 +21°C° 0 mm 2 m/S 673 mmHg 40%
    14:00 +21°C° 0 mm 2 m/S 672 mmHg 45%
    15:00 +20°C° 0 mm 2 m/S 672 mmHg 49%
    16:00 +19°C° 0 mm 3 m/S 672 mmHg 53%
    17:00 +18°C° 0.1 mm 2 m/S 671 mmHg 61%
    18:00 +16°C° 0.1 mm 1 m/S 671 mmHg 68%
    19:00 +13°C° 0.1 mm 0 m/S 670 mmHg 75%
    20:00 +13°C° 0 mm 0 m/S 670 mmHg 77%
    21:00 +12°C° 0 mm 0 m/S 670 mmHg 79%
    22:00 +11°C° 0 mm 0 m/S 670 mmHg 81%
    23:00 +11°C° 0 mm 0 m/S 670 mmHg 81%

    Morgen, 26 April, Freitag

    Zeit Temperatur Niederschläge Wind Luftdruck Luftfeuchtigkeit
    00:00 +11°C° 0 mm 0 m/S 670 mmHg 82%
    01:00 +10°C° 0 mm 0 m/S 670 mmHg 82%
    02:00 +11°C° 0 mm 1 m/S 669 mmHg 82%
    03:00 +11°C° 0 mm 1 m/S 669 mmHg 82%
    04:00 +11°C° 0 mm 1 m/S 669 mmHg 81%
    05:00 +13°C° 0 mm 1 m/S 669 mmHg 76%
    06:00 +14°C° 0 mm 1 m/S 670 mmHg 71%
    07:00 +16°C° 0 mm 1 m/S 670 mmHg 65%
    08:00 +19°C° 0 mm 1 m/S 671 mmHg 58%
    09:00 +19°C° 0 mm 0 m/S 671 mmHg 50%
    10:00 +21°C° 0 mm 0 m/S 672 mmHg 43%
    11:00 +24°C° 0 mm 1 m/S 671 mmHg 41%
    12:00 +24°C° 0 mm 1 m/S 671 mmHg 40%
    13:00 +25°C° 0 mm 1 m/S 671 mmHg 38%
    14:00 +24°C° 0 mm 1 m/S 671 mmHg 41%
    15:00 +23°C° 0 mm 2 m/S 670 mmHg 45%
    16:00 +23°C° 0 mm 2 m/S 670 mmHg 49%
    17:00 +21°C° 0.2 mm 1 m/S 669 mmHg 59%
    18:00 +18°C° 0.2 mm 1 m/S 669 mmHg 70%
    19:00 +15°C° 0.2 mm 1 m/S 668 mmHg 81%
    20:00 +15°C° 0 mm 1 m/S 668 mmHg 83%
    21:00 +14°C° 0 mm 1 m/S 668 mmHg 86%
    22:00 +14°C° 0 mm 1 m/S 668 mmHg 88%
    23:00 +13°C° 0 mm 1 m/S 668 mmHg 89%

    übermorgen, 27 April, Samstag

    Zeit Temperatur Niederschläge Wind Luftdruck Luftfeuchtigkeit
    00:00 +13°C° 0 mm 1 m/S 668 mmHg 90%
    01:00 +13°C° 0 mm 1 m/S 667 mmHg 90%
    02:00 +12°C° 0 mm 1 m/S 667 mmHg 89%
    03:00 +12°C° 0 mm 1 m/S 667 mmHg 88%
    04:00 +12°C° 0 mm 1 m/S 666 mmHg 87%
    05:00 +13°C° 0 mm 1 m/S 666 mmHg 82%
    06:00 +14°C° 0 mm 1 m/S 667 mmHg 77%
    07:00 +15°C° 0 mm 1 m/S 667 mmHg 71%
    08:00 +16°C° 0 mm 2 m/S 667 mmHg 67%
    09:00 +17°C° 0 mm 2 m/S 668 mmHg 62%
    10:00 +17°C° 0 mm 2 m/S 668 mmHg 57%
    11:00 +18°C° 0.1 mm 3 m/S 668 mmHg 57%
    12:00 +18°C° 0.1 mm 3 m/S 668 mmHg 56%
    13:00 +18°C° 0.1 mm 3 m/S 667 mmHg 55%
    14:00 +17°C° 0.5 mm 3 m/S 667 mmHg 59%
    15:00 +16°C° 0.5 mm 3 m/S 666 mmHg 63%
    16:00 +15°C° 0.5 mm 4 m/S 666 mmHg 67%
    17:00 +13°C° 0.1 mm 3 m/S 666 mmHg 74%
    18:00 +11°C° 0.1 mm 3 m/S 665 mmHg 80%
    19:00 +9°C° 0.1 mm 2 m/S 665 mmHg 86%
    20:00 +8°C° 0 mm 2 m/S 665 mmHg 88%
    21:00 +7°C° 0 mm 2 m/S 665 mmHg 90%
    22:00 +7°C° 0 mm 1 m/S 665 mmHg 91%
    23:00 +7°C° 0 mm 1 m/S 665 mmHg 88%

    28 April, Sonntag

    Zeit Temperatur Niederschläge Wind Luftdruck Luftfeuchtigkeit
    00:00 +6°C° 0 mm 1 m/S 665 mmHg 86%
    01:00 +6°C° 0 mm 1 m/S 664 mmHg 83%
    02:00 +6°C° 0 mm 1 m/S 664 mmHg 80%
    03:00 +5°C° 0 mm 1 m/S 664 mmHg 76%
    04:00 +5°C° 0 mm 1 m/S 664 mmHg 73%
    05:00 +7°C° 0 mm 1 m/S 664 mmHg 67%
    06:00 +8°C° 0 mm 1 m/S 665 mmHg 62%
    07:00 +10°C° 0 mm 1 m/S 665 mmHg 57%
    08:00 +12°C° 0 mm 2 m/S 666 mmHg 52%
    09:00 +14°C° 0 mm 2 m/S 666 mmHg 46%
    10:00 +15°C° 0 mm 2 m/S 667 mmHg 40%
    11:00 +16°C° 0 mm 2 m/S 666 mmHg 38%
    12:00 +17°C° 0 mm 2 m/S 666 mmHg 37%
    13:00 +17°C° 0 mm 2 m/S 666 mmHg 35%
    14:00 +17°C° 0 mm 2 m/S 666 mmHg 39%
    15:00 +17°C° 0 mm 3 m/S 665 mmHg 43%
    16:00 +16°C° 0 mm 3 m/S 665 mmHg 47%
    17:00 +14°C° 0 mm 2 m/S 665 mmHg 57%
    18:00 +12°C° 0 mm 2 m/S 664 mmHg 67%
    19:00 +10°C° 0 mm 1 m/S 664 mmHg 77%
    20:00 +9°C° 0 mm 1 m/S 664 mmHg 80%
    21:00 +8°C° 0 mm 1 m/S 664 mmHg 83%
    22:00 +8°C° 0 mm 1 m/S 664 mmHg 87%
    23:00 +7°C° 0 mm 1 m/S 664 mmHg 88%

    29 April, Montag

    Zeit Temperatur Niederschläge Wind Luftdruck Luftfeuchtigkeit
    00:00 +6°C° 0 mm 1 m/S 663 mmHg 89%
    01:00 +6°C° 0 mm 1 m/S 663 mmHg 90%
    02:00 +6°C° 0 mm 1 m/S 663 mmHg 89%
    03:00 +5°C° 0 mm 1 m/S 663 mmHg 88%
    04:00 +5°C° 0 mm 1 m/S 663 mmHg 87%
    05:00 +5°C° 0 mm 2 m/S 663 mmHg 81%
    06:00 +7°C° 0 mm 2 m/S 664 mmHg 75%
    07:00 +8°C° 0 mm 2 m/S 664 mmHg 69%
    08:00 +10°C° 0 mm 2 m/S 664 mmHg 64%
    09:00 +12°C° 0 mm 2 m/S 665 mmHg 58%
    10:00 +12°C° 0 mm 3 m/S 665 mmHg 53%
    11:00 +13°C° 0 mm 3 m/S 665 mmHg 51%
    12:00 +14°C° 0 mm 3 m/S 665 mmHg 49%
    13:00 +14°C° 0 mm 4 m/S 665 mmHg 47%
    14:00 +14°C° 0 mm 3 m/S 665 mmHg 50%
    15:00 +13°C° 0 mm 3 m/S 664 mmHg 53%
    16:00 +12°C° 0 mm 3 m/S 664 mmHg 56%
    17:00 +11°C° 0 mm 3 m/S 663 mmHg 65%
    18:00 +9°C° 0 mm 2 m/S 663 mmHg 74%
    19:00 +8°C° 0 mm 2 m/S 663 mmHg 83%
    20:00 +7°C° 0 mm 2 m/S 663 mmHg 87%
    21:00 +6°C° 0 mm 2 m/S 663 mmHg 91%
    22:00 +6°C° 0 mm 1 m/S 663 mmHg 95%
    23:00 +5°C° 0 mm 2 m/S 662 mmHg 95%

    30 April, Dienstag

    Zeit Temperatur Niederschläge Wind Luftdruck Luftfeuchtigkeit
    00:00 +5°C° 0 mm 2 m/S 662 mmHg 95%
    01:00 +4°C° 0 mm 2 m/S 662 mmHg 95%
    02:00 +4°C° 0 mm 2 m/S 662 mmHg 95%
    03:00 +4°C° 0 mm 2 m/S 662 mmHg 94%
    04:00 +4°C° 0 mm 2 m/S 662 mmHg 94%
    05:00 +5°C° 0.5 mm 2 m/S 662 mmHg 88%
    06:00 +6°C° 0.5 mm 2 m/S 662 mmHg 82%
    07:00 +7°C° 0.5 mm 2 m/S 663 mmHg 75%
    08:00 +8°C° 0.2 mm 3 m/S 663 mmHg 71%
    09:00 +9°C° 0.2 mm 3 m/S 663 mmHg 66%
    10:00 +10°C° 0.2 mm 3 m/S 663 mmHg 61%
    11:00 +10°C° 0.2 mm 3 m/S 663 mmHg 62%
    12:00 +10°C° 0.2 mm 4 m/S 663 mmHg 63%
    13:00 +10°C° 0.2 mm 4 m/S 663 mmHg 63%
    14:00 +10°C° 0 mm 4 m/S 663 mmHg 65%
    15:00 +8°C° 0 mm 4 m/S 663 mmHg 66%
    16:00 +9°C° 0 mm 3 m/S 663 mmHg 67%
    17:00 +8°C° 0 mm 3 m/S 663 mmHg 74%
    18:00 +6°C° 0 mm 2 m/S 662 mmHg 81%
    19:00 +6°C° 0 mm 1 m/S 662 mmHg 88%
    20:00 +5°C° 0 mm 1 m/S 662 mmHg 89%
    21:00 +5°C° 0 mm 1 m/S 662 mmHg 90%
    22:00 +4°C° 0 mm 1 m/S 663 mmHg 92%
    23:00 +4°C° 0 mm 1 m/S 662 mmHg 91%
    Mehr zeigen